GFSSE_con_mlcape_000.txt.gz
CAPE
346 667 607 749 844 970 932 865 861 965 1123 1214 1208 1170 1030 1027 878 769 701 643 478 369 442 478 337 565 1175 1006 835 817 846 680 600 629 1044 1293 1272 1293 1157 966 861 929 969
504 864 721 907 1020 1036 1094 1001 992 1059 1272 1325 1367 1396 1133 1342 1162 797 582 494 431 430 567 755 596 512 1247 1575 1079 822 645 757 820 533 590 692 1358 1315 1470 1106 955 955 802
560 926 1030 1112 1293 1206 1287 1281 1274 1283 1197 1327 1478 1324 1132 1396 1359 1176 936 651 606 558 682 966 1360 1089 1847 1853 1178 920 979 875 788 545 351 526 683 861 1259 1170 1053 1074 811
608 1060 1213 1192 1423 1512 1531 1547 1483 1576 1559 1619 1473 1448 1512 1496 1517 1252 830 696 829 977 1221 1327 1411 1593 1253 1112 950 855 835 961 1034 769 512 694 564 877 1563 1056 989 929 1046
524 823 1175 1274 1473 1815 2021 1961 1998 1877 1741 1706 1716 1768 1765 1602 1259 884 565 512 635 820 952 1176 1394 1462 1113 848 685 524 473 621 795 810 1100 1019 666 774 744 1023 775 667 760
325 616 860 1095 1274 1460 1697 1770 1808 1907 1846 1646 1562 1629 1674 1474 740 373 353 368 550 656 711 581 366 248 388 950 891 654 534 663 487 857 1154 1091 600 753 411 459 619 736 817
167 430 456 936 1045 1069 1080 1058 1135 1258 1221 1142 1208 1353 1236 855 659 423 356 369 331 202 233 382 560 577 579 450 338 250 338 713 872 785 1023 1164 975 635 330 279 414 553 461
109 392 465 479 604 642 634 555 500 534 604 597 672 900 868 600 410 290 146 88 38 3 0 9 43 125 234 353 507 593 425 260 555 997 738 831 775 602 703 427 318 442 451
62 256 481 527 499 273 301 303 373 575 519 439 452 427 416 358 256 137 61 33 13 0 0 0 0 0 0 2 14 92 178 204 743 668 556 533 266 379 384 291 227 184 326
246 258 510 684 627 760 589 103 192 349 378 333 289 203 150 131 17 0 0 0 0 0 0 0 0 0 0 0 0 0 0 45 444 410 314 181 66 321 446 168 149 34 163
452 675 758 737 726 696 464 371 62 71 239 245 363 200 288 436 391 95 0 0 0 0 0 0 0 0 0 0 0 0 0 23 63 106 152 0 0 79 197 304 274 158 182
675 927 992 1040 918 709 210 548 484 449 601 873 894 950 616 719 606 146 52 0 0 0 0 0 0 0 0 0 0 0 0 0 0 5 10 0 0 31 122 150 177 189 140
914 1064 1099 1264 1230 866 201 422 241 203 334 598 1133 1197 892 806 531 366 219 10 3 0 0 0 0 0 0 0 0 0 0 0 0 0 0 0 0 0 0 4 70 163 172
763 1169 1404 1318 1375 1299 477 282 320 288 246 345 540 1121 833 537 439 333 54 0 0 0 0 0 0 0 0 0 0 0 0 0 0 0 0 0 0 0 0 0 0 0 50
746 1424 1784 1742 1444 969 1149 531 622 552 255 359 394 351 628 287 136 40 0 0 0 0 0 1 0 0 0 0 0 0 0 0 0 0 0 0 0 0 0 0 0 0 0
985 1460 2023 1920 1200 508 445 650 365 193 100 105 43 25 178 247 2 0 0 0 0 0 0 0 0 0 0 0 0 0 0 0 0 0 0 0 0 0 0 0 0 0 0
554 1129 1760 1497 306 285 160 84 13 0 1 0 0 0 9 23 0 0 0 0 0 0 0 0 0 0 0 0 0 0 0 0 0 0 0 0 0 0 0 0 0 0 0
634 995 1248 589 28 24 16 23 14 10 18 14 10 3 0 8 12 0 0 0 0 0 0 0 0 0 0 0 0 0 0 0 0 0 0 0 0 0 0 0 0 0 0
265 632 843 261 0 1 35 52 54 56 24 0 0 0 0 1 6 8 0 0 11 9 0 0 0 0 0 0 0 0 0 0 0 0 0 0 0 0 0 0 0 0 0
86 480 536 35 0 48 44 15 0 0 0 0 0 0 0 0 0 0 0 0 14 18 3 0 0 0 0 0 0 0 0 0 0 0 0 0 0 0 0 0 0 0 0
192 286 180 29 0 0 0 0 0 0 0 0 0 0 0 0 0 0 0 0 2 7 10 23 19 5 0 0 0 0 0 0 0 0 0 0 0 0 0 0 0 0 0
8 13 0 0 0 0 0 0 0 0 0 0 0 0 0 0 0 0 0 0 0 0 0 0 16 19 22 7 0 0 0 0 2 0 0 0 0 0 0 0 0 0 0
0 0 0 0 0 0 0 0 0 0 0 0 0 0 0 0 0 0 0 0 0 0 0 0 0 0 0 11 58 2 0 15 33 22 1 0 0 0 0 0 0 0 0
0 0 0 0 0 0 0 0 0 0 0 0 0 0 0 0 0 0 0 0 0 0 0 0 0 0 0 0 18 50 32 16 20 24 8 0 0 0 0 0 0 0 0
0 0 0 0 0 0 0 0 0 0 0 0 0 0 0 0 0 0 0 0 0 0 0 0 0 0 0 0 12 25 18 20 4 6 12 2 0 0 0 0 0 0 0
0 0 0 0 0 0 0 0 0 0 0 0 0 0 0 0 0 0 0 0 0 0 0 0 0 0 0 1 0 0 0 0 0 1 0 5 13 0 0 0 0 0 0

GFSSE_con_mlcape_003.txt.gz
CAPE
502 584 548 733 891 843 807 812 894 954 1024 995 926 905 943 812 706 697 669 607 530 554 617 750 678 340 700 1287 1196 890 952 998 735 690 864 1058 1018 1391 1177 774 910 1317 825
656 767 663 814 849 976 905 881 1013 1016 1158 1209 1262 1154 1067 1091 1136 993 772 651 624 707 862 1094 1427 893 1069 1622 1448 1145 946 923 959 696 577 418 842 887 1119 883 1062 1038 891
724 741 892 1087 1056 1056 1001 960 1037 1309 1458 1460 1437 1244 1397 1329 1335 1106 799 743 885 1034 1266 1371 1618 1763 2052 2206 1599 1242 1190 1169 1192 1045 517 251 1034 218 569 770 1011 970 648
827 912 1125 1134 1280 1221 1324 1283 1351 1341 1358 1276 1335 1452 1709 1608 1207 1102 919 878 951 1145 1436 1621 1791 1739 1379 1347 1077 1103 952 1040 1148 1017 650 652 954 573 647 770 821 1218 868
703 1010 1166 1335 1638 1673 1735 1676 1678 1685 1673 1744 1687 1680 1870 1603 1136 712 491 501 783 1039 1085 1019 927 1086 1418 1232 892 737 704 669 831 989 920 1100 786 680 938 448 654 514 615
442 832 1111 1399 1560 1787 1978 2013 2007 1913 1780 1556 1591 1556 1565 1070 651 404 323 457 517 457 520 635 641 462 310 421 616 807 682 709 596 711 1031 1154 276 574 561 835 497 644 866
131 292 975 1150 1167 1259 1368 1328 1394 1399 1242 1098 1225 1292 1082 867 603 326 193 95 27 17 22 87 147 255 445 633 736 605 373 534 691 743 756 925 752 749 591 253 251 444 415
90 279 285 369 659 793 807 740 727 741 691 626 744 828 684 485 301 146 48 17 0 0 0 0 0 0 1 56 184 375 431 275 341 817 878 866 634 633 567 394 237 83 28
42 229 296 321 361 118 154 256 360 472 428 420 302 264 250 134 51 5 0 0 0 0 0 0 0 0 0 0 0 9 65 123 296 349 532 557 322 398 409 513 398 187 101
5 228 447 466 350 536 599 47 167 240 283 246 141 59 23 141 26 0 1 0 0 0 0 0 0 0 0 0 0 0 0 10 333 115 290 41 24 349 318 267 241 304 275
106 401 572 574 412 321 120 103 81 37 60 132 326 256 345 535 368 159 6 0 0 0 0 0 0 0 0 0 0 0 0 2 0 18 99 0 0 170 309 296 386 393 316
434 441 987 939 631 352 0 119 60 48 433 482 519 596 451 414 348 113 85 44 0 0 0 0 0 0 0 0 0 0 0 0 0 0 12 0 0 4 110 144 199 263 235
433 393 956 1437 964 343 15 132 109 70 113 284 591 675 418 414 379 248 184 199 231 33 16 0 3 2 0 0 0 0 0 0 0 0 0 0 0 0 0 0 0 16 147
286 183 1080 1529 865 538 269 187 183 135 118 125 274 437 340 199 142 136 22 3 0 6 1 6 2 0 0 0 0 0 0 0 0 0 0 0 0 0 0 0 0 0 0
154 284 799 1353 489 199 373 397 450 401 274 194 199 132 131 111 57 3 0 0 0 0 3 1 0 0 0 0 0 0 0 0 0 0 0 0 0 0 0 0 0 0 0
107 515 889 1325 610 75 113 396 452 225 94 56 16 3 41 63 37 0 0 0 0 0 0 0 0 0 0 0 0 0 0 0 0 0 0 0 0 0 0 0 0 0 0
287 423 1095 1296 425 27 119 150 35 0 0 0 0 2 5 19 15 0 0 0 0 0 0 2 1 1 0 0 0 0 0 0 0 0 0 0 0 0 0 0 0 0 0
216 406 880 1097 169 20 16 11 4 9 6 15 13 5 16 31 25 30 4 1 6 18 10 3 0 4 8 5 0 0 0 0 0 0 0 0 0 0 0 0 0 0 0
226 335 635 910 15 0 33 47 42 25 12 1 0 1 0 0 0 5 3 22 78 47 62 75 36 31 21 12 1 1 0 0 0 0 0 0 0 0 0 0 0 0 0
115 161 465 615 0 19 62 56 1 0 0 0 0 0 0 0 2 8 22 50 79 72 107 133 169 109 123 84 26 20 22 8 0 0 0 0 0 0 0 0 0 0 0
273 184 256 122 65 31 12 0 0 0 0 0 0 0 0 0 0 0 0 0 1 4 51 72 91 88 117 125 155 111 58 1 0 0 0 0 0 0 0 0 0 0 0
282 308 123 17 0 0 0 0 0 0 0 0 0 0 0 0 0 0 0 0 0 0 0 17 44 60 67 87 115 118 26 14 43 50 27 22 3 0 0 1 13 0 0
19 6 0 0 0 0 0 0 0 0 0 0 0 0 0 0 0 0 0 0 0 0 0 0 1 4 13 16 65 72 3 1 64 52 176 58 59 57 1 0 0 0 0
0 0 0 0 0 0 0 0 0 0 0 0 0 0 0 0 0 0 0 0 0 0 0 0 0 0 0 0 1 2 24 73 29 24 60 147 60 24 55 34 11 0 0
0 0 0 0 0 0 0 0 0 0 0 1 0 0 0 0 0 0 0 0 0 0 0 0 0 2 2 7 5 8 6 0 26 2 0 9 139 12 17 18 0 0 1
0 0 0 0 0 0 0 0 0 0 0 0 0 0 0 0 0 0 0 0 0 0 2 3 16 22 7 4 4 2 4 1 1 1 1 0 39 7 5 0 0 1 2

GFSSE_con_mlcape_006.txt.gz
CAPE
531 449 572 760 709 693 676 735 806 858 818 834 883 800 731 730 653 645 609 607 665 821 932 990 1181 819 773 1011 1649 1111 869 927 903 544 402 300 426 1020 735 499 701 800 368
610 548 636 755 802 751 754 800 870 987 1062 1033 959 963 959 991 957 789 723 729 867 1051 1252 1370 1543 1613 1791 1793 1495 1239 1025 865 987 981 462 100 582 472 335 324 832 423 348
615 658 807 794 880 862 861 1028 1066 1187 1238 1128 1070 1082 1150 1121 955 830 797 782 898 1054 1336 1437 1626 1545 1282 1409 1163 1056 980 858 821 759 617 178 474 120 121 572 852 730 554
839 900 1006 949 996 1044 1088 1123 1149 1185 1103 1142 1202 1299 1285 1179 915 706 489 466 695 919 982 989 926 1385 1164 949 799 614 673 618 639 694 587 563 906 513 637 708 969 907 589
1110 1031 1052 1174 1157 1308 1425 1401 1339 1134 1167 1272 1387 1570 1380 997 598 308 320 484 567 639 692 750 587 392 329 444 503 624 516 434 438 370 551 700 326 338 92 563 585 708 218
837 914 1022 1205 1472 1596 1629 1583 1562 1422 1261 1223 1282 1308 1003 627 358 265 260 124 65 30 74 117 169 224 330 447 492 340 201 275 289 294 229 618 143 116 166 402 793 909 867
549 767 837 879 984 1033 1020 1009 1038 926 815 722 719 638 512 373 134 27 2 0 0 0 0 0 0 0 0 15 85 197 284 209 101 153 504 450 0 21 294 370 443 490 452
332 384 419 397 359 346 356 376 375 300 295 378 447 291 261 104 36 4 0 0 0 0 0 0 0 0 0 0 0 0 0 8 54 247 611 569 218 20 364 475 304 127 115
55 45 189 144 8 20 47 127 194 209 143 50 39 45 22 2 0 0 0 0 0 0 0 0 0 0 0 0 0 0 0 0 0 118 197 237 312 531 439 539 378 199 64
140 220 304 322 387 269 39 5 29 21 11 2 5 1 26 49 3 0 0 0 0 0 0 0 0 0 0 0 0 0 0 0 0 28 58 7 83 199 410 347 331 354 278
140 293 285 270 232 691 101 2 14 0 41 134 262 180 118 360 232 82 0 0 0 0 0 0 0 0 0 0 0 0 0 0 0 0 89 0 0 10 222 210 255 318 317
224 314 727 414 264 23 29 91 370 124 417 517 470 454 557 307 274 135 111 57 0 0 0 0 0 0 0 0 0 0 0 0 0 0 0 0 0 0 6 135 153 218 253
346 408 1120 735 400 201 5 94 173 180 104 495 660 483 423 232 335 258 253 220 67 14 72 0 0 0 0 0 0 0 0 0 0 0 0 0 0 0 0 0 1 18 53
275 283 1224 843 401 230 301 148 119 217 33 174 193 379 229 157 112 14 3 0 0 0 0 0 0 0 0 0 0 0 0 0 0 0 0 0 0 0 0 0 0 0 0
256 185 823 702 328 440 42 412 415 241 227 55 202 111 61 87 36 4 0 0 0 0 0 0 0 0 0 0 0 0 0 0 0 0 0 0 0 0 0 0 0 0 0
94 419 959 946 238 114 257 372 473 214 116 178 13 0 15 41 39 19 0 0 0 0 0 0 0 0 0 0 0 0 0 0 0 0 0 0 0 0 0 0 0 0 0
7 277 1152 688 202 77 88 221 197 1 0 0 0 2 7 16 16 30 17 3 28 33 15 7 14 0 0 0 0 0 0 0 0 0 0 0 0 0 0 0 0 0 0
199 169 316 809 204 35 77 4 2 12 6 15 28 10 2 10 12 15 27 31 51 94 49 54 40 25 18 0 0 0 0 0 0 0 0 0 0 0 0 0 0 0 0
58 270 796 311 122 21 93 16 17 12 19 9 0 0 0 0 1 0 3 24 40 57 64 95 87 91 112 89 84 42 0 19 0 0 0 0 0 0 0 0 0 0 0
87 66 609 213 0 0 40 37 0 0 0 0 0 0 0 0 0 0 0 0 20 58 18 43 81 35 22 25 46 39 33 16 4 16 0 0 0 0 0 0 0 0 0
184 110 54 23 10 14 23 0 0 0 0 0 0 0 0 0 0 0 0 0 0 0 0 0 0 0 0 8 8 22 6 0 72 68 22 25 5 0 0 0 0 0 0
199 86 41 0 0 0 0 0 0 0 0 0 0 0 0 0 0 0 0 0 0 0 0 0 0 0 0 0 0 0 0 0 0 0 21 59 36 15 0 0 0 0 0
2 0 0 0 0 0 0 0 0 0 0 0 0 0 0 0 0 0 0 0 0 0 0 0 0 0 0 0 0 0 1 0 0 0 0 0 10 45 19 0 4 4 6
0 0 0 0 0 0 0 0 0 0 0 0 0 0 0 0 0 0 0 0 0 0 0 0 0 0 0 0 0 0 0 0 1 0 0 0 0 14 72 87 36 1 15
0 0 0 0 0 0 0 0 0 0 0 0 0 0 0 0 0 0 0 0 0 0 0 0 0 3 0 0 0 0 0 0 0 0 0 0 0 0 0 0 0 0 0
0 0 0 0 0 0 0 0 0 0 0 0 0 0 0 0 0 0 0 0 0 0 2 18 7 1 0 0 0 0 0 0 2 1 1 0 1 0 0 0 0 0 0

GFSSE_con_mlcape_009.txt.gz
CAPE
366 597 519 517 504 543 601 655 632 658 698 636 605 576 608 554 482 484 509 576 671 860 1097 1255 1466 1459 1400 1870 1388 1123 912 743 930 1195 671 606 922 537 489 696 939 706 540
424 636 548 560 551 622 692 766 826 813 760 751 747 764 755 674 579 533 476 450 515 670 873 1172 1438 1369 1139 1161 967 957 983 872 908 802 690 414 480 457 446 588 677 468 734
458 602 641 625 633 771 826 882 974 926 906 881 900 871 770 700 599 440 309 303 436 507 603 706 985 1215 1079 871 695 620 628 738 700 730 642 581 643 716 528 451 588 832 805
552 630 692 706 788 866 862 902 909 918 944 980 1096 1060 919 720 429 224 228 245 311 336 377 342 324 256 222 226 278 424 542 474 472 484 373 538 542 303 14 423 527 541 625
640 703 788 830 1005 1023 977 882 886 925 1068 1092 1130 861 700 402 214 135 67 32 44 56 96 114 102 115 144 200 237 245 193 180 231 185 301 572 228 190 209 239 666 608 740
631 812 925 1048 1168 1144 1146 1086 1008 954 932 987 792 609 432 229 79 14 0 0 0 0 0 0 0 0 0 0 0 1 17 113 135 76 361 447 319 183 88 119 261 439 641
612 788 938 1019 1013 1007 1001 913 736 574 484 429 285 270 179 53 3 0 0 0 0 0 0 0 0 0 0 0 0 0 0 0 0 10 401 425 12 23 0 238 186 544 461
285 496 544 463 372 319 275 176 103 104 139 103 76 77 14 0 0 0 0 0 0 0 0 0 0 0 0 0 0 0 0 0 0 50 534 329 267 280 48 129 318 230 31
50 8 25 9 0 0 3 14 6 1 0 0 0 0 0 1 0 0 0 0 0 0 0 0 0 0 0 0 0 0 0 0 0 3 222 297 371 403 549 677 527 257 197
15 18 0 0 0 0 0 0 0 0 0 0 0 0 23 16 0 0 0 0 0 0 0 0 0 0 0 0 0 0 0 0 0 0 0 31 143 351 308 388 412 400 348
92 119 101 85 55 0 0 0 0 0 8 44 72 52 99 110 48 35 19 0 0 0 0 0 0 0 0 0 0 0 0 0 0 0 0 0 0 2 47 78 220 301 301
112 189 135 104 342 0 0 0 0 48 199 223 304 302 207 198 233 78 40 22 5 0 0 0 0 0 0 0 0 0 0 0 0 0 0 0 0 0 0 14 98 167 254
155 307 195 19 10 56 70 42 71 137 260 364 396 119 193 80 231 34 74 25 0 2 0 0 0 0 0 0 0 0 0 0 0 0 0 0 0 0 0 0 0 7 66
229 547 359 139 48 9 0 34 43 84 49 475 243 244 108 46 7 0 0 0 0 0 0 0 0 0 0 0 0 0 0 0 0 0 0 0 0 0 0 0 0 0 0
347 780 506 49 0 48 197 126 82 119 26 33 121 16 2 30 0 0 0 0 0 0 0 0 0 0 0 0 0 0 0 0 0 0 0 0 0 0 0 0 0 0 0
272 884 358 282 300 50 253 284 199 102 6 65 0 0 0 0 4 0 0 0 0 0 4 0 0 0 0 0 0 0 0 0 0 0 0 0 0 0 0 0 0 0 0
254 615 201 207 352 210 290 223 303 1 0 0 0 0 0 0 0 0 0 0 0 0 12 13 7 6 0 0 0 0 0 0 0 0 0 0 0 0 0 0 0 0 0
499 516 28 18 133 78 181 60 1 0 0 0 0 0 0 0 0 0 0 0 0 0 0 0 3 23 23 3 0 0 0 0 0 0 0 0 0 0 0 0 0 0 0
360 269 62 3 175 62 0 5 5 0 0 0 0 0 0 0 0 0 0 0 0 0 0 0 0 0 0 0 0 0 0 0 0 0 0 0 0 0 0 0 0 0 0
113 195 0 132 76 11 3 8 0 0 0 0 0 0 0 0 0 0 0 0 0 0 0 0 0 0 0 0 0 0 0 0 0 0 0 0 0 0 0 0 0 0 0
217 86 52 11 0 1 3 0 0 0 0 0 0 0 0 0 0 0 0 0 0 0 0 0 0 0 0 0 0 0 0 0 0 0 0 0 0 0 0 0 0 0 0
0 0 0 0 0 0 0 0 0 0 0 0 0 0 0 0 0 0 0 0 0 0 0 0 0 0 0 0 0 0 0 0 0 0 0 0 0 0 0 0 0 0 0
0 0 0 0 0 0 0 0 0 0 0 0 0 0 0 0 0 0 0 0 0 0 0 0 0 0 0 0 0 0 0 0 0 0 0 0 0 0 0 0 0 0 0
0 0 0 0 0 0 0 0 0 0 0 0 0 0 0 0 0 0 0 0 0 0 0 0 0 0 0 0 0 0 0 0 0 0 0 0 0 0 0 0 0 0 0
0 0 0 0 0 0 0 0 0 0 0 0 0 0 0 0 0 0 0 0 0 0 0 0 0 0 0 0 0 0 0 0 0 0 0 0 0 0 0 0 0 0 0
0 0 0 0 0 0 0 0 0 0 0 0 0 0 0 0 0 0 0 0 0 0 0 0 0 0 0 3 12 1 1 0 0 0 0 0 1 0 0 0 0 0 0